Regional Weather Roundup
Issued by NWS

Home | Current Version | Previous Version | Text Only | Print | Product List | Glossary On
Versions: 1 2 3 4 5 6 7 8 9 10 11 12 13 14 15 16 17 18 19 20 21 22 23 24 25 26 27 28 29 30 31 32 33 34 35 36 37 38 39 40 41 42 43 44 45 46 47 48 49 50
000
ASUS43 KDTX 262101
RWRMI
MICHIGAN HOURLY REGIONAL WEATHER ROUNDUP
NATIONAL WEATHER SERVICE DETROIT/PONTIAC MI
500 PM EDT TUE MAY 26 2015

NOTE: "FAIR" INDICATES FEW OR NO CLOUDS BELOW 12,000 FEET WITH NO
SIGNIFICANT WEATHER AND/OR OBSTRUCTION TO VISIBILITY.

MIZ047>049-052>055-059>063-066>070-074>076-081>083-262200-
SOUTHEAST LOWER MICHIGAN

CITY           SKY/WX    TMP DP  RH WIND       PRES   REMARKS
ADRIAN         LGT RAIN  83  61  47 S18G30    29.88F
ALMA           PTSUNNY   78  67  67 S12       29.82F
ANN ARBOR      PTSUNNY   79  66  64 SE9       29.88F
BAD AXE        MOSUNNY   80  63  54 S18       29.89F
CARO           MOSUNNY   83  64  52 S15G22    29.86F
DETROIT CITY   MOSUNNY   83  64  52 S16G24    29.90F
DETROIT        CLOUDY    82  63  52 SE12G20   29.90F
FLINT          MOSUNNY   84  65  52 SE15G22   29.86F
GROSSE ILE     PTSUNNY   79  64  61 SE10G17   29.89F
HILLSDALE      RAIN      74  70  89 S3        29.89S
HOWELL         PTSUNNY   82  62  50 SE16      29.85F

CITY           SKY/WX    TMP DP  RH WIND       PRES   REMARKS
JACKSON        LGT RAIN  79  63  57 S15G31    29.86F
LAMBERTVILLE   PTSUNNY   84  59  42 S9        29.89F
LANSING        PTSUNNY   81  64  56 S15G24    29.82F
LAPEER         FAIR      82  62  49 S10G23    29.88F
MASON          CLOUDY    79  64  60 S15       29.84F
MONROE         PTSUNNY   79  64  61 SE8       29.88F
MT. CLEMENS    PTSUNNY   80  66  61 SE15      29.90F
PONTIAC        PTSUNNY   81  63  54 SE20G30   29.88F
PORT HOPE        N/A    N/A N/A N/A S9G18     29.87F
PORT HURON     MOSUNNY   81  64  57 S16G23    29.92F
TRI CITIES     PTSUNNY   83  63  50 S14       29.84F
MIDLAND        PTSUNNY   82  62  52 S13G18    29.82F
TROY           MOSUNNY   84  64  50 SE12G21   29.92F
SAGINAW HB     PTSUNNY   81  61  50 S15       29.84F
$$
MIZ043>046-050>051-056>058-064>065-071>073-077>080-262200-
SOUTHWEST LOWER MICHIGAN

CITY           SKY/WX    TMP DP  RH WIND       PRES   REMARKS
BATTLE CREEK   TSTM      70  67  90 SW15G25   29.86R VSB 1
BENTON HARBOR  PTSUNNY   68  66  93 SW12      29.82S
BIG RAPIDS     LGT RAIN  74  65  73 SE14G21   29.79F
COLDWATER      LGT RAIN  71  66  84 S12G21    29.87R
FREMONT        HVY RAIN  68  66  95 SW21G35   29.80R VSB 3/4
HOLLAND        LGT RAIN  70  66  87 SW18G26   29.82F
GRAND RAPIDS   TSTM      71  68  90 S15G23    29.84R FOG
IONIA          RAIN      75  68  77 S7        29.82R
KALAMAZOO      CLOUDY    74  69  85 S16G24    29.84F
LUDINGTON      HVY RAIN  68  66  92 CALM      29.77F VSB 1
MARSHALL       LGT RAIN  79  65  61 S17G31    29.84S
MOUNT PLEASANT PTSUNNY   79  64  59 SE12      29.80F
MUSKEGON       CLOUDY    71  67  87 S16G23    29.79F
SOUTH HAVEN    LGT RAIN  66  64  92 SW10G18   29.82F
$$
MIZ016>042-262200-
NORTHERN LOWER MICHIGAN

CITY           SKY/WX    TMP DP  RH WIND       PRES   REMARKS
ALPENA         MOSUNNY   85  60  42 S15G25    29.84F
BEAVER ISLAND  CLOUDY    60  57  90 CALM      29.82F FOG
BELLAIRE       LGT RAIN  79  60  52 E3        29.78F
CADILLAC       DRIZZLE   72  65  78 SE8       29.81F
CHARLEVOIX     CLOUDY    57  55  94 N5        29.85F FOG
FRANKFORT      RAIN      72  62  70 NW7       29.78F
GAYLORD        CLOUDY    77  59  53 S8        29.84F
HARBOR SPRINGS CLOUDY    57  55  92 CALM      29.82F FOG
HOUGHTON LAKE  PTSUNNY   77  62  59 S10       29.84F
MANISTEE       CLOUDY    66  63  88 CALM      29.79S
OSCODA         MOSUNNY   82  64  54 S8        29.85F
PELLSTON       CLOUDY    71  62  73 N12       29.84S
ROGERS CITY    PTSUNNY   84  55  37 S12G20    29.82F
TRAVERSE CITY  CLOUDY    79  62  56 SE5       29.76F
$$
MIZ007>008-015-262200-
EASTERN UPPER MICHIGAN

CITY           SKY/WX    TMP DP  RH WIND       PRES   REMARKS
KINROSS        CLOUDY    77  64  65 W7        29.83F
MACKINAC ISLAN CLOUDY    68  62  79 CALM      29.83F
NEWBERRY       CLOUDY    65  63  91 SW8G20    29.83F
S. S. MARIE    CLOUDY    75  65  70 N3        29.83F
$$
MIZ004>006-011>014-085-262200-
CENTRAL UPPER MICHIGAN

CITY           SKY/WX    TMP DP  RH WIND       PRES   REMARKS
MANISTIQUE     CLOUDY    63  60  90 CALM      29.81F FOG
ESCANABA       CLOUDY    61  57  88 S3        29.78F
MENOMINEE      CLOUDY    63  57  82 E6        29.74F
SAWYER-GWINN   CLOUDY    55  54  94 NE8       29.83S
$$
MIZ001>003-009>011-084-262200-
WESTERN UPPER MICHIGAN

CITY           SKY/WX    TMP DP  RH WIND       PRES   REMARKS
IRON MOUNTAIN  LGT RAIN  64  62  93 E6        29.76F FOG
HOUGHTON       PTSUNNY   63  54  72 E5        29.80F
COPPER HARBOR    N/A     56  51  84 CALM      29.82F
IRONWOOD       CLOUDY    55  52  88 CALM      29.78F
$$

ABBREVIATIONS USED IN REMARKS
   TC - TEMPERATURE IN CELSIUS
  WCI - WIND CHILL INDEX
   HX - HEAT INDEX
  VSB - VISIBILITY




USA.gov is the U.S. government's official web portal to all federal, state and local government web resources and services.